(38241) = 1999 PU1 = 2000 XM24

Discovered at Reedy Creek on 1999-08-09 by J. Broughton.

Orbit

Orbit type: Main Belt

Note: WebGL enabled browser required.

epoch2023-09-13.0
epoch JD2460200.5
perihelion date2021-05-08.88581
perihelion JD2459343.38581
argument of perihelion (°)56.36754
ascending node (°)345.79910
inclination (°)9.71918
eccentricity0.0553816
perihelion distance (AU)2.8438375
Tisserand w.r.t. Jupiter3.2
ΔV w.r.t. Earth (km/sec)10.9
semimajor axis (AU)3.0105676
mean anomaly (°)161.72232
mean daily motion (°/day)0.18868240
aphelion distance (AU)3.177
period (years)5.22
P-vector [x]0.73826387
P-vector [y]0.54935483
P-vector [z]0.39137670
Q-vector [x]-0.67323936
Q-vector [y]0.63576962
Q-vector [z]0.37755232
absolute magnitude14.06
phase slope0.15
uncertainty0
referenceMPEC 2023-X02
observations used1818
oppositions20
arc length (days)10497
first opposition used1994
last opposition used2023
residual rms (arc-secs)0.62
perturbers coarse indicatorM-v
perturbers precise indicator003Ek
first observation date used1994-09-12.0
last observation date used2023-06-09.0
computer nameMPCLINUX
JD of orbit computation2456847.698636
perihelion JD uncertainty (days)2.1228E-04
argument of perihelion uncertainty (°)4.4487E-05
ascending node uncertainty (°)2.0532E-05
inclination uncertainty (°)4.7936E-06
eccentricity uncertainty 3.5261E-08
perihelion distance uncertainty (AU)1.0656E-07
Minimum Orbit Intersection Distances (in AU)
for orbit epoch: 2460200.5, reference: E2023-X02
Mercury2.52187
Venus2.13465
Earth1.86234
Mars1.34441
Jupiter2.06274
Saturn6.1785
Uranus15.3396
Neptune27.0064

Observations

1849 total observations over interval: 1994 09 12.18408 – 2023 06 09.190433
These data are available for download (format description).

Date (UT) J2000 RA J2000 Dec Magn Location Ref
1994 09 12.18408 00 09 11.47 +04 28 31.2   691 – Steward Observatory, Kitt Peak-Spacewatch MPS 22254
1994 09 12.20669 00 09 10.35 +04 28 29.1 18.0 V 691 – Steward Observatory, Kitt Peak-Spacewatch MPS 22254
1994 09 12.22835 00 09 09.28 +04 28 27.9   691 – Steward Observatory, Kitt Peak-Spacewatch MPS 22254
1999 08 09.67219 23 12 16.61 -07 54 20.4   428 – Reedy Creek MPS 5931
1999 08 09.69156 23 12 15.93 -07 54 21.4   428 – Reedy Creek MPS 5931
1999 08 10.62442 23 11 42.86 -07 55 24.7 19.1 R 428 – Reedy Creek MPS 5931
1999 08 10.67770 23 11 40.76 -07 55 28.1 18.9 R 428 – Reedy Creek MPS 5931
1999 08 11.60002 23 11 07.06 -07 56 33.8   428 – Reedy Creek MPS 5931
1999 08 11.63235 23 11 05.81 -07 56 36.0   428 – Reedy Creek MPS 5931
1999 08 12.34579 23 10 38.82 -07 57 32.0 18.9 R 699 – Lowell Observatory-LONEOS MPS 5931
1999 08 12.37380 23 10 37.80 -07 57 33.5   699 – Lowell Observatory-LONEOS MPS 5931
1999 08 12.40183 23 10 36.67 -07 57 35.1   699 – Lowell Observatory-LONEOS MPS 5931
1999 08 19.55009 23 05 39.03 -08 08 16.4   428 – Reedy Creek MPS 5931
1999 09 04.22644 22 52 44.69 -08 37 54.0 17.5 R 699 – Lowell Observatory-LONEOS MPS 60656
1999 09 04.25196 22 52 43.35 -08 37 57.0   699 – Lowell Observatory-LONEOS MPS 60656
1999 09 04.27750 22 52 41.95 -08 37 59.4   699 – Lowell Observatory-LONEOS MPS 60656
1999 09 04.55167 22 52 27.69 -08 38 28.4 18.3 R 428 – Reedy Creek MPS 6095
1999 09 04.57000 22 52 26.74 -08 38 30.5 18.3 R 428 – Reedy Creek MPS 6095
1999 09 07.33945 22 50 02.80 -08 43 48.0 18.2   704 – Lincoln Laboratory ETS, New Mexico MPS 6095
1999 09 07.35127 22 50 02.19 -08 43 49.0 18.6   704 – Lincoln Laboratory ETS, New Mexico MPS 6095
1999 09 07.36302 22 50 01.54 -08 43 50.3 18.5   704 – Lincoln Laboratory ETS, New Mexico MPS 6095
1999 09 07.37484 22 50 00.92 -08 43 51.1 18.4   704 – Lincoln Laboratory ETS, New Mexico MPS 6095
1999 09 07.38667 22 50 00.29 -08 43 53.3 18.5   704 – Lincoln Laboratory ETS, New Mexico MPS 6095
1999 09 09.34503 22 48 19.18 -08 47 25.4 18.0   704 – Lincoln Laboratory ETS, New Mexico MPS 6095
1999 09 09.35884 22 48 18.47 -08 47 26.5 18.8   704 – Lincoln Laboratory ETS, New Mexico MPS 6095
1999 09 09.37277 22 48 17.64 -08 47 28.6 18.8   704 – Lincoln Laboratory ETS, New Mexico MPS 6095
1999 09 09.38706 22 48 16.93 -08 47 29.4 18.4   704 – Lincoln Laboratory ETS, New Mexico MPS 6095
1999 09 09.40094 22 48 16.26 -08 47 30.7 18.5   704 – Lincoln Laboratory ETS, New Mexico MPS 6095
1999 09 13.23077 22 45 01.70 -08 54 00.1 18.6   704 – Lincoln Laboratory ETS, New Mexico MPS 6095
1999 09 13.24219 22 45 01.12 -08 54 01.9 18.8   704 – Lincoln Laboratory ETS, New Mexico MPS 6095
1999 09 13.25377 22 45 00.56 -08 54 02.4 18.7   704 – Lincoln Laboratory ETS, New Mexico MPS 6095
1999 09 13.26570 22 44 59.93 -08 54 03.4 18.7   704 – Lincoln Laboratory ETS, New Mexico MPS 6095
1999 09 13.27722 22 44 59.31 -08 54 04.9 18.6   704 – Lincoln Laboratory ETS, New Mexico MPS 6095
1999 09 15.46611 22 43 10.92 -08 57 21.0 18.2 R 428 – Reedy Creek MPS 6095
1999 09 15.48475 22 43 09.97 -08 57 23.6 18.2 R 428 – Reedy Creek MPS 6095
1999 09 30.26780 22 32 33.20 -09 10 56.5 18.7   704 – Lincoln Laboratory ETS, New Mexico MPS 6756
1999 09 30.28044 22 32 32.70 -09 10 56.7 18.9   704 – Lincoln Laboratory ETS, New Mexico MPS 6756
1999 09 30.29309 22 32 32.20 -09 10 57.2 19.4   704 – Lincoln Laboratory ETS, New Mexico MPS 6756
1999 09 30.30576 22 32 31.73 -09 10 57.3 19.7   704 – Lincoln Laboratory ETS, New Mexico MPS 6756
1999 09 30.31858 22 32 31.27 -09 10 57.1 19.6   704 – Lincoln Laboratory ETS, New Mexico MPS 6756
1999 10 01.20997 22 32 00.10 -09 11 09.0 18.7   704 – Lincoln Laboratory ETS, New Mexico MPS 6756
1999 10 01.21533 22 31 59.90 -09 11 08.7 19.6   704 – Lincoln Laboratory ETS, New Mexico MPS 6756
1999 10 01.22046 22 31 59.67 -09 11 09.1 20.0   704 – Lincoln Laboratory ETS, New Mexico MPS 6756
1999 10 01.22559 22 31 59.50 -09 11 09.7 19.8   704 – Lincoln Laboratory ETS, New Mexico MPS 6756
1999 10 01.23083 22 31 59.34 -09 11 09.2 19.6   704 – Lincoln Laboratory ETS, New Mexico MPS 6756
1999 10 01.23596 22 31 59.10 -09 11 08.9 20.0   704 – Lincoln Laboratory ETS, New Mexico MPS 6756
1999 10 01.24110 22 31 58.92 -09 11 09.3 19.9   704 – Lincoln Laboratory ETS, New Mexico MPS 6756
1999 10 01.24622 22 31 58.70 -09 11 09.6 19.4   704 – Lincoln Laboratory ETS, New Mexico MPS 6756
1999 10 08.17735 22 28 28.66 -09 09 56.9 19.2   704 – Lincoln Laboratory ETS, New Mexico MPS 11946
1999 10 08.22348 22 28 27.52 -09 09 57.5 19.3   704 – Lincoln Laboratory ETS, New Mexico MPS 11946
1999 10 08.23895 22 28 27.00 -09 09 56.3 19.3   704 – Lincoln Laboratory ETS, New Mexico MPS 11946
1999 10 10.45487 22 27 33.46 -09 08 26.3 19.5 R 428 – Reedy Creek MPS 6757
1999 10 15.16762 22 26 02.20 -09 03 40.6 18.8   704 – Lincoln Laboratory ETS, New Mexico MPS 11946
1999 10 15.18326 22 26 01.94 -09 03 39.0 19.4   704 – Lincoln Laboratory ETS, New Mexico MPS 11946
1999 10 15.19887 22 26 01.64 -09 03 37.6 19.5   704 – Lincoln Laboratory ETS, New Mexico MPS 11946
1999 10 15.21445 22 26 01.36 -09 03 37.0 19.7   704 – Lincoln Laboratory ETS, New Mexico MPS 11946
1999 10 15.23008 22 26 01.06 -09 03 35.9 19.9   704 – Lincoln Laboratory ETS, New Mexico MPS 11946
1999 10 28.40738 22 24 35.77 -08 37 11.1 19.4 R 428 – Reedy Creek MPS 7328
1999 10 28.46178 22 24 35.85 -08 37 02.6 19.4 R 428 – Reedy Creek MPS 7328
2000 11 19.39081 05 27 29.35 +37 33 26.2 18.5   704 – Lincoln Laboratory ETS, New Mexico MPS 23087
2000 11 19.40589 05 27 28.60 +37 33 27.8 19.1   704 – Lincoln Laboratory ETS, New Mexico MPS 23087
2000 11 19.42105 05 27 27.81 +37 33 29.5 18.9   704 – Lincoln Laboratory ETS, New Mexico MPS 23087
2000 11 19.43612 05 27 27.04 +37 33 32.5 19.1   704 – Lincoln Laboratory ETS, New Mexico MPS 23087
2000 12 04.28371 05 13 11.66 +37 46 42.6 17.9   704 – Lincoln Laboratory ETS, New Mexico MPS 23087
2000 12 04.29856 05 13 10.73 +37 46 42.0 17.7   704 – Lincoln Laboratory ETS, New Mexico MPS 23087
2000 12 04.31343 05 13 09.78 +37 46 41.9 17.4   704 – Lincoln Laboratory ETS, New Mexico MPS 23087
2000 12 04.32829 05 13 08.75 +37 46 41.5 17.7   704 – Lincoln Laboratory ETS, New Mexico MPS 23087
2000 12 04.34314 05 13 07.76 +37 46 41.1 17.4   704 – Lincoln Laboratory ETS, New Mexico MPS 23087
2000 12 06.29052 05 11 03.89 +37 45 37.9 18.1   704 – Lincoln Laboratory ETS, New Mexico MPS 23087
2000 12 06.30589 05 11 02.86 +37 45 38.2 18.8   704 – Lincoln Laboratory ETS, New Mexico MPS 23087
2000 12 06.32117 05 11 01.81 +37 45 36.9 18.2   704 – Lincoln Laboratory ETS, New Mexico MPS 23087
2000 12 06.33735 05 11 00.77 +37 45 36.0 18.5   704 – Lincoln Laboratory ETS, New Mexico MPS 23087
2000 12 06.35235 05 10 59.74 +37 45 35.7 18.3   704 – Lincoln Laboratory ETS, New Mexico MPS 23087
2000 12 19.22808 04 57 27.11 +37 22 22.1 17.2   704 – Lincoln Laboratory ETS, New Mexico MPS 23625
2000 12 19.24495 04 57 26.11 +37 22 19.7 17.8   704 – Lincoln Laboratory ETS, New Mexico MPS 23625
2000 12 19.26041 04 57 25.16 +37 22 17.4 18.3   704 – Lincoln Laboratory ETS, New Mexico MPS 23625
2000 12 19.29132 04 57 23.23 +37 22 11.8 18.6   704 – Lincoln Laboratory ETS, New Mexico MPS 23625
2001 01 05.22884 04 43 13.06 +36 17 50.9 18.8   704 – Lincoln Laboratory ETS, New Mexico MPS 23626
2001 01 05.24404 04 43 12.58 +36 17 47.9 18.9   704 – Lincoln Laboratory ETS, New Mexico MPS 23626
2001 01 05.25923 04 43 11.99 +36 17 43.2 18.6   704 – Lincoln Laboratory ETS, New Mexico MPS 23626
2001 01 05.27441 04 43 11.50 +36 17 39.2 18.3   704 – Lincoln Laboratory ETS, New Mexico MPS 23626
2001 01 05.28960 04 43 10.85 +36 17 36.2 19.3   704 – Lincoln Laboratory ETS, New Mexico MPS 23626
2001 02 16.09415 04 43 05.27 +33 19 38.5 19.3   704 – Lincoln Laboratory ETS, New Mexico MPS 26439
2001 02 16.12195 04 43 06.13 +33 19 33.2 19.7   704 – Lincoln Laboratory ETS, New Mexico MPS 26439
2001 02 16.13587 04 43 06.63 +33 19 30.1 19.5   704 – Lincoln Laboratory ETS, New Mexico MPS 26439
2002 02 06.36223 11 30 19.82 +04 31 45.2 18.3 R 699 – Lowell Observatory-LONEOS MPS 48679
2002 02 06.38422 11 30 19.06 +04 31 46.4   699 – Lowell Observatory-LONEOS MPS 48679
